| time (UTC) | temp F | wind direction | speed MPH | gust MPH | rain 1hr in | rain 24hr in | rain mn in | humidity % | barometer mb |
| 20260509054126 | 51 | 105 | 0.0 | 0.0 | 0.00 | 0.00 | 0.00 | 97 | 1003.1 |
| 20260509053624 | 51 | 97 | 0.0 | 0.0 | 0.00 | 0.00 | 0.00 | 97 | 1003.2 |
| 20260509053121 | 51 | 96 | 0.0 | 0.0 | 0.00 | 0.00 | 0.00 | 97 | 1003.2 |
| 20260509052619 | 51 | 93 | 0.0 | 0.0 | 0.00 | 0.00 | 0.00 | 97 | 1003.1 |
| 20260509052116 | 51 | 96 | 0.0 | 0.0 | 0.00 | 0.00 | 0.00 | 97 | 1003.3 |
| 20260509051614 | 51 | 109 | 0.0 | 0.0 | 0.00 | 0.00 | 0.00 | 97 | 1003.3 |
| 20260509051111 | 51 | 101 | 0.0 | 0.0 | 0.00 | 0.00 | 0.00 | 96 | 1003.0 |
| 20260509050608 | 51 | 104 | 0.0 | 0.0 | 0.00 | 0.00 | 0.00 | 96 | 1003.2 |
| 20260509050104 | 52 | 97 | 0.0 | 0.0 | 0.00 | 0.00 | 0.00 | 96 | 1003.3 |
| 20260509045602 | 52 | 103 | 0.0 | 0.0 | 0.00 | 0.00 | 0.00 | 96 | 1003.2 |
| 20260509045058 | 52 | 95 | 0.0 | 0.0 | 0.00 | 0.00 | 0.00 | 95 | 1003.3 |
| 20260509044556 | 52 | 104 | 0.0 | 0.0 | 0.00 | 0.00 | 0.00 | 95 | 1003.2 |
| 20260509044053 | 51 | 98 | 0.0 | 0.0 | 0.00 | 0.00 | 0.00 | 96 | 1003.3 |
| 20260509043549 | 52 | 97 | 0.0 | 0.0 | 0.00 | 0.00 | 0.00 | 96 | 1003.6 |
| 20260509043045 | 52 | 97 | 0.0 | 0.0 | 0.00 | 0.00 | 0.00 | 96 | 1003.5 |
| 20260509042541 | 52 | 121 | 0.0 | 0.0 | 0.00 | 0.00 | 0.00 | 96 | 1003.5 |
| 20260509042038 | 52 | 101 | 0.0 | 0.0 | 0.00 | 0.00 | 0.00 | 96 | 1003.5 |
| 20260509041534 | 52 | 118 | 0.0 | 0.0 | 0.00 | 0.00 | 0.00 | 95 | 1003.3 |
| 20260509041032 | 52 | 96 | 0.0 | 0.0 | 0.00 | 0.00 | 0.00 | 95 | 1003.3 |
| 20260509040531 | 52 | 101 | 0.0 | 0.0 | 0.00 | 0.00 | 0.00 | 95 | 1003.6 |
| 20260509040027 | 52 | 116 | 0.0 | 0.0 | 0.00 | 0.01 | 0.01 | 94 | 1003.6 |
| 20260509035524 | 53 | 99 | 0.0 | 0.0 | 0.00 | 0.01 | 0.01 | 94 | 1003.7 |
| 20260509035020 | 53 | 97 | 0.0 | 0.0 | 0.00 | 0.01 | 0.01 | 94 | 1003.5 |
| 20260509034519 | 53 | 109 | 0.0 | 0.0 | 0.00 | 0.01 | 0.01 | 93 | 1003.5 |
| 20260509034015 | 53 | 103 | 0.0 | 0.0 | 0.00 | 0.01 | 0.01 | 92 | 1003.8 |
| 20260509033512 | 53 | 96 | 0.0 | 0.0 | 0.00 | 0.01 | 0.01 | 92 | 1003.7 |
| 20260509033009 | 53 | 100 | 0.0 | 0.0 | 0.00 | 0.01 | 0.01 | 93 | 1003.9 |
| 20260509032507 | 52 | 98 | 0.0 | 0.0 | 0.00 | 0.01 | 0.01 | 93 | 1004.0 |
| 20260509032004 | 52 | 99 | 0.0 | 0.0 | 0.00 | 0.01 | 0.01 | 94 | 1003.9 |
| 20260509031501 | 52 | 113 | 0.0 | 0.0 | 0.00 | 0.01 | 0.01 | 93 | 1003.9 |
| 20260509030958 | 52 | 116 | 0.0 | 0.0 | 0.00 | 0.01 | 0.01 | 93 | 1004.0 |
| 20260509030456 | 52 | 95 | 0.0 | 0.0 | 0.00 | 0.01 | 0.01 | 93 | 1003.9 |
| 20260509025947 | 52 | 108 | 0.0 | 0.0 | 0.00 | 0.01 | 0.01 | 92 | 1004.0 |
| 20260509025443 | 52 | 115 | 0.0 | 0.0 | 0.00 | 0.01 | 0.01 | 92 | 1003.7 |
| 20260509024938 | 53 | 102 | 0.0 | 0.0 | 0.00 | 0.01 | 0.01 | 92 | 1004.0 |
| 20260509024434 | 53 | 106 | 0.0 | 0.0 | 0.00 | 0.01 | 0.01 | 92 | 1004.1 |
| 20260509023931 | 53 | 125 | 0.0 | 0.0 | 0.00 | 0.01 | 0.01 | 91 | 1004.1 |
| 20260509023429 | 53 | 97 | 0.0 | 0.0 | 0.00 | 0.01 | 0.01 | 90 | 1003.8 |
| 20260509022925 | 53 | 98 | 0.0 | 0.0 | 0.00 | 0.01 | 0.01 | 89 | 1004.0 |
| 20260509022423 | 53 | 104 | 0.0 | 0.0 | 0.00 | 0.01 | 0.01 | 89 | 1004.1 |
| 20260509021920 | 53 | 101 | 0.0 | 0.0 | 0.00 | 0.01 | 0.01 | 89 | 1004.1 |
| 20260509021417 | 53 | 102 | 0.0 | 0.0 | 0.00 | 0.01 | 0.01 | 88 | 1003.9 |
| 20260509020914 | 53 | 104 | 0.0 | 0.0 | 0.00 | 0.01 | 0.01 | 88 | 1004.0 |
| 20260509020412 | 53 | 102 | 0.0 | 0.0 | 0.00 | 0.01 | 0.01 | 87 | 1004.1 |
| 20260509015909 | 54 | 99 | 0.0 | 0.0 | 0.00 | 0.01 | 0.01 | 86 | 1004.2 |
| 20260509015408 | 54 | 103 | 0.0 | 0.0 | 0.00 | 0.01 | 0.01 | 86 | 1004.0 |
| 20260509014904 | 54 | 98 | 0.0 | 0.0 | 0.00 | 0.01 | 0.01 | 85 | 1004.0 |
| 20260509014401 | 54 | 98 | 0.0 | 0.0 | 0.00 | 0.01 | 0.01 | 85 | 1004.1 |
| 20260509013857 | 54 | 98 | 0.0 | 0.0 | 0.00 | 0.01 | 0.01 | 84 | 1003.9 |
| 20260509013354 | 54 | 102 | 0.0 | 0.0 | 0.00 | 0.01 | 0.01 | 84 | 1004.1 |
| 20260509012850 | 55 | 101 | 0.0 | 0.0 | 0.00 | 0.01 | 0.01 | 84 | 1004.0 |
| 20260509012347 | 55 | 108 | 0.0 | 0.0 | 0.00 | 0.01 | 0.01 | 83 | 1004.0 |
| 20260509011844 | 55 | 104 | 0.0 | 0.0 | 0.00 | 0.01 | 0.01 | 83 | 1003.9 |
| 20260509011341 | 55 | 106 | 0.0 | 0.0 | 0.00 | 0.01 | 0.01 | 82 | 1003.9 |
| 20260509010839 | 55 | 105 | 0.0 | 0.0 | 0.00 | 0.01 | 0.01 | 81 | 1003.9 |
| 20260509010336 | 56 | 112 | 0.0 | 0.0 | 0.00 | 0.01 | 0.01 | 82 | 1003.8 |
| 20260509005833 | 57 | 108 | 0.0 | 0.0 | 0.00 | 0.01 | 0.01 | 82 | 1003.7 |
| 20260509005326 | 57 | 105 | 0.0 | 0.0 | 0.00 | 0.01 | 0.01 | 77 | 1003.5 |
| 20260509004825 | 57 | 105 | 0.0 | 0.0 | 0.00 | 0.01 | 0.01 | 76 | 1003.7 |
| 20260509004322 | 58 | 105 | 0.0 | 0.0 | 0.00 | 0.01 | 0.01 | 80 | 1003.7 |
| 20260509003820 | 58 | 106 | 0.0 | 0.0 | 0.00 | 0.01 | 0.01 | 79 | 1003.7 |
| 20260509003318 | 59 | 107 | 0.0 | 0.0 | 0.00 | 0.01 | 0.01 | 76 | 1003.4 |
| 20260509002814 | 60 | 106 | 0.0 | 0.0 | 0.00 | 0.01 | 0.01 | 72 | 1003.6 |
| 20260509002312 | 60 | 106 | 0.0 | 0.0 | 0.00 | 0.01 | 0.01 | 71 | 1003.5 |
| 20260509001810 | 61 | 99 | 0.0 | 0.0 | 0.00 | 0.01 | 0.01 | 67 | 1003.5 |
| 20260509001305 | 61 | 88 | 0.0 | 0.0 | 0.00 | 0.01 | 0.01 | 65 | 1003.4 |
| 20260509000803 | 62 | 83 | 0.0 | 0.0 | 0.00 | 0.01 | 0.01 | 67 | 1003.4 |
| 20260509000303 | 62 | 105 | 0.0 | 0.0 | 0.00 | 0.01 | 0.01 | 65 | 1003.5 |
| 20260508235757 | 62 | 77 | 0.0 | 0.0 | 0.00 | 0.01 | 0.01 | 62 | 1003.4 |
| 20260508235254 | 63 | 234 | 0.0 | 0.0 | 0.00 | 0.01 | 0.01 | 60 | 1003.4 |
| 20260508234751 | 63 | 143 | 0.0 | 0.0 | 0.00 | 0.01 | 0.01 | 61 | 1003.4 |
| 20260508234247 | 63 | 104 | 0.0 | 0.0 | 0.00 | 0.01 | 0.01 | 63 | 1003.4 |
| 20260508233741 | 63 | 104 | 0.0 | 0.0 | 0.00 | 0.01 | 0.01 | 64 | 1003.6 |
| 20260508233239 | 62 | 90 | 0.0 | 0.0 | 0.00 | 0.01 | 0.01 | 64 | 1003.5 |
| 20260508232736 | 63 | 178 | 0.0 | 0.0 | 0.00 | 0.01 | 0.01 | 60 | 1003.6 |
| 20260508232232 | 63 | 177 | 0.0 | 3.0 | 0.00 | 0.01 | 0.01 | 60 | 1003.6 |
| 20260508231730 | 63 | 102 | 1.0 | 2.0 | 0.00 | 0.01 | 0.01 | 62 | 1003.5 |
| 20260508231226 | 65 | 158 | 1.0 | 2.0 | 0.00 | 0.01 | 0.01 | 60 | 1003.7 |
| 20260508230724 | 65 | 91 | 0.0 | 2.0 | 0.00 | 0.01 | 0.01 | 59 | 1003.5 |
| 20260508230220 | 64 | 69 | 1.0 | 2.0 | 0.00 | 0.01 | 0.01 | 61 | 1003.5 |
| 20260508225718 | 65 | 96 | 0.0 | 1.0 | 0.00 | 0.01 | 0.01 | 60 | 1003.7 |
| 20260508225214 | 66 | 95 | 0.0 | 1.0 | 0.00 | 0.01 | 0.01 | 58 | 1003.6 |
| 20260508224712 | 66 | 95 | 0.0 | 1.0 | 0.00 | 0.01 | 0.01 | 59 | 1003.7 |
| 20260508224209 | 65 | 85 | 0.0 | 1.0 | 0.00 | 0.01 | 0.01 | 58 | 1003.6 |
| 20260508223707 | 65 | 142 | 0.0 | 2.0 | 0.00 | 0.01 | 0.01 | 61 | 1003.7 |
| 20260508223204 | 64 | 27 | 1.0 | 1.0 | 0.00 | 0.01 | 0.01 | 61 | 1003.9 |
| 20260508222701 | 63 | 95 | 0.0 | 2.0 | 0.00 | 0.01 | 0.01 | 60 | 1003.8 |
| 20260508222158 | 64 | 68 | 2.0 | 7.0 | 0.00 | 0.01 | 0.01 | 60 | 1003.8 |
| 20260508221654 | 65 | 65 | 1.0 | 2.0 | 0.00 | 0.01 | 0.01 | 59 | 1004.0 |
| 20260508221149 | 65 | 97 | 0.0 | 1.0 | 0.00 | 0.01 | 0.01 | 57 | 1003.7 |
| 20260508220641 | 64 | 64 | 2.0 | 2.0 | 0.00 | 0.01 | 0.01 | 61 | 1004.0 |
| 20260508220138 | 65 | 121 | 1.0 | 2.0 | 0.00 | 0.01 | 0.01 | 64 | 1004.0 |
| 20260508215634 | 66 | 69 | 0.0 | 0.0 | 0.00 | 0.01 | 0.01 | 62 | 1003.8 |
| 20260508215131 | 64 | 98 | 0.0 | 0.0 | 0.00 | 0.01 | 0.01 | 63 | 1003.8 |
| 20260508214628 | 66 | 109 | 0.0 | 1.0 | 0.00 | 0.01 | 0.01 | 57 | 1003.7 |
| 20260508214125 | 65 | 208 | 2.0 | 2.0 | 0.00 | 0.01 | 0.01 | 59 | 1003.8 |
| 20260508213622 | 66 | 278 | 2.0 | 6.0 | 0.00 | 0.01 | 0.01 | 60 | 1003.8 |
| 20260508213118 | 66 | 171 | 2.0 | 5.0 | 0.00 | 0.01 | 0.01 | 61 | 1003.9 |
| 20260508212615 | 66 | 83 | 2.0 | 3.0 | 0.00 | 0.01 | 0.01 | 59 | 1004.1 |
| 20260508212111 | 65 | 206 | 2.0 | 2.0 | 0.00 | 0.01 | 0.01 | 59 | 1003.7 |
| 20260508211606 | 65 | 70 | 2.0 | 6.0 | 0.00 | 0.01 | 0.01 | 59 | 1004.2 |
| 20260508211103 | 64 | 96 | 2.0 | 3.0 | 0.00 | 0.01 | 0.01 | 59 | 1004.0 |
| 20260508210600 | 65 | 0 | 3.0 | 3.0 | 0.00 | 0.01 | 0.01 | 63 | 1004.1 |
| 20260508210057 | 66 | 98 | 2.0 | 5.0 | 0.00 | 0.01 | 0.01 | 60 | 1004.1 |
| 20260508205554 | 66 | 167 | 2.0 | 7.0 | 0.00 | 0.01 | 0.01 | 59 | 1004.3 |
| 20260508205050 | 66 | 74 | 1.0 | 2.0 | 0.00 | 0.01 | 0.01 | 60 | 1004.4 |
| 20260508204547 | 66 | 60 | 1.0 | 3.0 | 0.00 | 0.01 | 0.01 | 60 | 1004.5 |
| 20260508204043 | 66 | 192 | 1.0 | 7.0 | 0.00 | 0.01 | 0.01 | 66 | 1004.3 |
| 20260508203539 | 66 | 86 | 0.0 | 0.0 | 0.00 | 0.01 | 0.01 | 60 | 1004.5 |
| 20260508203035 | 67 | 160 | 0.0 | 0.0 | 0.00 | 0.01 | 0.01 | 60 | 1004.4 |
| 20260508202532 | 67 | 185 | 0.0 | 0.0 | 0.00 | 0.01 | 0.01 | 58 | 1004.4 |
| 20260508202029 | 66 | 86 | 0.0 | 1.0 | 0.00 | 0.01 | 0.01 | 56 | 1004.6 |
| 20260508201526 | 66 | 352 | 0.0 | 0.0 | 0.00 | 0.01 | 0.01 | 59 | 1004.5 |
| 20260508201022 | 65 | 198 | 0.0 | 0.0 | 0.00 | 0.01 | 0.01 | 61 | 1004.8 |
| 20260508200520 | 67 | 59 | 0.0 | 0.0 | 0.00 | 0.01 | 0.01 | 58 | 1004.8 |
| 20260508200015 | 66 | 101 | 0.0 | 0.0 | 0.00 | 0.01 | 0.01 | 60 | 1004.7 |
| 20260508195512 | 64 | 140 | 0.0 | 2.0 | 0.00 | 0.01 | 0.01 | 63 | 1004.8 |
| 20260508195008 | 64 | 97 | 0.0 | 1.0 | 0.00 | 0.01 | 0.01 | 68 | 1005.0 |
| 20260508194505 | 65 | 106 | 0.0 | 2.0 | 0.00 | 0.01 | 0.01 | 60 | 1004.8 |
| 20260508194003 | 64 | 250 | 3.0 | 6.0 | 0.00 | 0.01 | 0.01 | 61 | 1005.0 |
| 20260508193459 | 64 | 184 | 2.0 | 2.0 | 0.00 | 0.01 | 0.01 | 60 | 1005.0 |
| 20260508192956 | 65 | 86 | 0.0 | 1.0 | 0.00 | 0.01 | 0.01 | 63 | 1005.3 |
| 20260508192452 | 65 | 172 | 4.0 | 6.0 | 0.00 | 0.01 | 0.01 | 62 | 1005.0 |
| 20260508191949 | 65 | 83 | 0.0 | 3.0 | 0.00 | 0.01 | 0.01 | 64 | 1005.4 |
| 20260508191446 | 66 | 16 | 3.0 | 3.0 | 0.00 | 0.01 | 0.01 | 60 | 1005.4 |
| 20260508190943 | 66 | 255 | 3.0 | 3.0 | 0.00 | 0.01 | 0.01 | 63 | 1005.6 |
| 20260508190441 | 65 | 102 | 1.0 | 2.0 | 0.00 | 0.01 | 0.01 | 60 | 1005.6 |
| 20260508185936 | 64 | 342 | 5.0 | 6.0 | 0.00 | 0.01 | 0.01 | 63 | 1005.8 |
| 20260508185434 | 63 | 90 | 0.0 | 2.0 | 0.00 | 0.01 | 0.01 | 68 | 1005.8 |
| 20260508184931 | 64 | 271 | 1.0 | 3.0 | 0.00 | 0.01 | 0.01 | 66 | 1005.9 |
| 20260508184428 | 63 | 94 | 0.0 | 1.0 | 0.00 | 0.01 | 0.01 | 68 | 1006.0 |
| 20260508183925 | 63 | 95 | 1.0 | 2.0 | 0.00 | 0.01 | 0.01 | 62 | 1005.9 |
| 20260508183422 | 63 | 190 | 2.0 | 5.0 | 0.00 | 0.01 | 0.01 | 59 | 1006.0 |
| 20260508182917 | 64 | 177 | 3.0 | 5.0 | 0.00 | 0.01 | 0.01 | 58 | 1006.1 |
| 20260508182414 | 63 | 156 | 1.0 | 2.0 | 0.00 | 0.01 | 0.01 | 56 | 1006.5 |
| 20260508181909 | 62 | 75 | 2.0 | 3.0 | 0.00 | 0.01 | 0.01 | 55 | 1006.3 |
| 20260508181406 | 63 | 123 | 1.0 | 5.0 | 0.00 | 0.01 | 0.01 | 56 | 1006.2 |
| 20260508180904 | 62 | 71 | 2.0 | 3.0 | 0.00 | 0.01 | 0.01 | 57 | 1006.2 |
| 20260508180401 | 62 | 108 | 0.0 | 2.0 | 0.00 | 0.01 | 0.01 | 56 | 1006.3 |
| 20260508175856 | 62 | 79 | 0.0 | 2.0 | 0.00 | 0.01 | 0.01 | 57 | 1006.5 |
| 20260508175353 | 63 | 87 | 2.0 | 7.0 | 0.00 | 0.01 | 0.01 | 57 | 1006.5 |
| 20260508174852 | 63 | 80 | 0.0 | 0.0 | 0.00 | 0.01 | 0.01 | 57 | 1006.5 |
| 20260508174348 | 63 | 92 | 0.0 | 3.0 | 0.00 | 0.01 | 0.01 | 56 | 1006.4 |
| 20260508173845 | 62 | 76 | 0.0 | 1.0 | 0.00 | 0.01 | 0.01 | 55 | 1006.6 |
| 20260508173342 | 63 | 115 | 0.0 | 0.0 | 0.00 | 0.01 | 0.01 | 51 | 1006.7 |
| 20260508172837 | 63 | 89 | 1.0 | 1.0 | 0.00 | 0.01 | 0.01 | 58 | 1007.1 |
| 20260508172335 | 64 | 99 | 0.0 | 5.0 | 0.00 | 0.01 | 0.01 | 58 | 1007.0 |
| 20260508171832 | 63 | 112 | 0.0 | 0.0 | 0.00 | 0.01 | 0.01 | 54 | 1007.3 |
| 20260508171328 | 61 | 100 | 0.0 | 0.0 | 0.00 | 0.01 | 0.01 | 60 | 1007.0 |
| 20260508170825 | 61 | 64 | 0.0 | 0.0 | 0.00 | 0.01 | 0.01 | 57 | 1007.0 |
| 20260508170323 | 61 | 98 | 0.0 | 0.0 | 0.00 | 0.01 | 0.01 | 57 | 1007.3 |
| 20260508165819 | 61 | 215 | 0.0 | 0.0 | 0.00 | 0.01 | 0.01 | 55 | 1007.3 |
| 20260508165317 | 60 | 72 | 0.0 | 0.0 | 0.00 | 0.01 | 0.01 | 51 | 1007.3 |
| 20260508164812 | 61 | 69 | 0.0 | 0.0 | 0.00 | 0.01 | 0.01 | 55 | 1007.3 |
| 20260508164309 | 62 | 91 | 0.0 | 0.0 | 0.00 | 0.01 | 0.01 | 50 | 1007.5 |
| 20260508163808 | 62 | 106 | 0.0 | 0.0 | 0.00 | 0.01 | 0.01 | 58 | 1007.7 |
| 20260508163305 | 62 | 107 | 0.0 | 0.0 | 0.00 | 0.01 | 0.01 | 51 | 1007.5 |
| 20260508162800 | 62 | 130 | 0.0 | 0.0 | 0.00 | 0.01 | 0.01 | 46 | 1007.6 |
| 20260508162257 | 61 | 79 | 0.0 | 0.0 | 0.00 | 0.01 | 0.01 | 47 | 1007.8 |
| 20260508161754 | 62 | 1 | 0.0 | 0.0 | 0.00 | 0.01 | 0.01 | 49 | 1007.7 |
| 20260508161251 | 61 | 281 | 0.0 | 0.0 | 0.00 | 0.01 | 0.01 | 49 | 1007.9 |
| 20260508160749 | 61 | 180 | 0.0 | 0.0 | 0.00 | 0.01 | 0.01 | 59 | 1007.9 |
| 20260508160247 | 62 | 89 | 0.0 | 0.0 | 0.00 | 0.01 | 0.01 | 67 | 1008.1 |
| 20260508155743 | 61 | 141 | 0.0 | 0.0 | 0.00 | 0.01 | 0.01 | 61 | 1008.0 |
| 20260508155240 | 60 | 87 | 0.0 | 0.0 | 0.00 | 0.01 | 0.01 | 65 | 1008.0 |
| 20260508154737 | 61 | 70 | 0.0 | 0.0 | 0.00 | 0.01 | 0.01 | 65 | 1007.8 |
| 20260508154235 | 60 | 94 | 0.0 | 0.0 | 0.00 | 0.01 | 0.01 | 63 | 1008.0 |
| 20260508153731 | 60 | 98 | 0.0 | 0.0 | 0.00 | 0.01 | 0.01 | 71 | 1008.1 |
| 20260508153229 | 59 | 94 | 0.0 | 0.0 | 0.00 | 0.01 | 0.01 | 75 | 1008.0 |
| 20260508152725 | 58 | 98 | 0.0 | 0.0 | 0.00 | 0.01 | 0.01 | 77 | 1008.1 |
| 20260508152221 | 57 | 93 | 0.0 | 0.0 | 0.00 | 0.01 | 0.01 | 80 | 1007.9 |
| 20260508151717 | 58 | 107 | 0.0 | 0.0 | 0.00 | 0.01 | 0.01 | 83 | 1008.0 |
| 20260508151214 | 57 | 115 | 0.0 | 0.0 | 0.00 | 0.01 | 0.01 | 80 | 1008.0 |
| 20260508150711 | 56 | 128 | 0.0 | 0.0 | 0.00 | 0.01 | 0.01 | 83 | 1008.3 |
| 20260508150208 | 57 | 96 | 0.0 | 0.0 | 0.00 | 0.01 | 0.01 | 82 | 1008.1 |
| 20260508145704 | 57 | 148 | 0.0 | 0.0 | 0.00 | 0.01 | 0.01 | 80 | 1008.0 |
| 20260508145200 | 56 | 97 | 0.0 | 0.0 | 0.00 | 0.01 | 0.01 | 83 | 1008.0 |
| 20260508144657 | 55 | 94 | 0.0 | 0.0 | 0.00 | 0.01 | 0.01 | 84 | 1008.0 |
| 20260508144155 | 55 | 117 | 0.0 | 0.0 | 0.00 | 0.01 | 0.01 | 84 | 1007.9 |
| 20260508143653 | 56 | 75 | 0.0 | 0.0 | 0.00 | 0.01 | 0.01 | 85 | 1007.8 |
| 20260508143149 | 56 | 94 | 0.0 | 0.0 | 0.00 | 0.01 | 0.01 | 89 | 1008.0 |
| 20260508142645 | 55 | 30 | 0.0 | 0.0 | 0.00 | 0.01 | 0.01 | 88 | 1008.2 |
| 20260508142142 | 55 | 79 | 0.0 | 0.0 | 0.00 | 0.01 | 0.01 | 88 | 1008.0 |
| 20260508141639 | 55 | 91 | 0.0 | 0.0 | 0.00 | 0.01 | 0.01 | 90 | 1008.1 |
| 20260508141137 | 55 | 76 | 0.0 | 0.0 | 0.00 | 0.01 | 0.01 | 90 | 1008.5 |
| 20260508140634 | 54 | 94 | 0.0 | 0.0 | 0.00 | 0.01 | 0.01 | 94 | 1008.4 |
| 20260508140130 | 52 | 94 | 0.0 | 0.0 | 0.00 | 0.01 | 0.01 | 97 | 1008.3 |
| 20260508135626 | 51 | 62 | 0.0 | 0.0 | 0.00 | 0.01 | 0.01 | 98 | 1008.3 |
| 20260508135122 | 50 | 142 | 0.0 | 0.0 | 0.00 | 0.01 | 0.01 | 99 | 1008.5 |
| 20260508134619 | 50 | 105 | 0.0 | 0.0 | 0.00 | 0.01 | 0.01 | 99 | 1008.3 |
| 20260508134116 | 51 | 93 | 0.0 | 0.0 | 0.00 | 0.01 | 0.01 | 99 | 1008.4 |
| 20260508133613 | 50 | 92 | 0.0 | 0.0 | 0.00 | 0.01 | 0.01 | 99 | 1008.4 |
| 20260508133110 | 50 | 93 | 0.0 | 0.0 | 0.00 | 0.01 | 0.01 | 99 | 1008.3 |
| 20260508132608 | 49 | 97 | 0.0 | 0.0 | 0.00 | 0.01 | 0.01 | 99 | 1008.6 |
| 20260508132105 | 48 | 133 | 0.0 | 0.0 | 0.00 | 0.01 | 0.01 | 99 | 1008.3 |
| 20260508131600 | 48 | 93 | 0.0 | 0.0 | 0.00 | 0.01 | 0.01 | 99 | 1008.5 |
| 20260508131057 | 48 | 98 | 0.0 | 0.0 | 0.07 | 0.01 | 0.01 | 99 | 1008.5 |
| 20260508130554 | 48 | 93 | 0.0 | 0.0 | 0.07 | 0.01 | 0.01 | 99 | 1008.6 |
| 20260508130050 | 47 | 99 | 0.0 | 0.0 | 0.00 | 0.00 | 0.00 | 99 | 1008.5 |
| 20260508125546 | 47 | 97 | 0.0 | 0.0 | 0.00 | 0.00 | 0.00 | 99 | 1008.7 |
| 20260508125044 | 46 | 95 | 0.0 | 0.0 | 0.00 | 0.00 | 0.00 | 99 | 1008.5 |
| 20260508124542 | 46 | 91 | 0.0 | 0.0 | 0.00 | 0.00 | 0.00 | 99 | 1008.3 |
| 20260508124038 | 46 | 96 | 0.0 | 0.0 | 0.00 | 0.00 | 0.00 | 99 | 1008.8 |
| 20260508123537 | 45 | 97 | 0.0 | 0.0 | 0.00 | 0.00 | 0.00 | 99 | 1008.7 |
| 20260508123033 | 45 | 94 | 0.0 | 0.0 | 0.00 | 0.00 | 0.00 | 99 | 1008.4 |
| 20260508122530 | 45 | 126 | 0.0 | 0.0 | 0.00 | 0.00 | 0.00 | 99 | 1008.5 |
| 20260508122027 | 44 | 94 | 0.0 | 0.0 | 0.00 | 0.00 | 0.00 | 99 | 1008.5 |
| 20260508121525 | 43 | 96 | 0.0 | 0.0 | 0.00 | 0.00 | 0.00 | 99 | 1008.3 |
| 20260508121023 | 43 | 97 | 0.0 | 0.0 | 0.00 | 0.00 | 0.00 | 99 | 1008.3 |
| 20260508120520 | 43 | 97 | 0.0 | 0.0 | 0.00 | 0.00 | 0.00 | 99 | 1008.4 |
| 20260508120018 | 42 | 107 | 0.0 | 0.0 | 0.00 | 0.00 | 0.00 | 99 | 1008.4 |
| 20260508115516 | 42 | 93 | 0.0 | 0.0 | 0.00 | 0.00 | 0.00 | 99 | 1008.2 |
| 20260508115012 | 42 | 96 | 0.0 | 0.0 | 0.00 | 0.00 | 0.00 | 99 | 1008.1 |
| 20260508114509 | 41 | 113 | 0.0 | 0.0 | 0.00 | 0.00 | 0.00 | 99 | 1008.3 |
| 20260508114005 | 41 | 94 | 0.0 | 0.0 | 0.00 | 0.00 | 0.00 | 99 | 1008.3 |
| 20260508113503 | 41 | 95 | 0.0 | 0.0 | 0.00 | 0.00 | 0.00 | 99 | 1008.3 |
| 20260508113000 | 39 | 96 | 0.0 | 0.0 | 0.00 | 0.00 | 0.00 | 99 | 1008.2 |
| 20260508112457 | 39 | 93 | 0.0 | 0.0 | 0.00 | 0.00 | 0.00 | 99 | 1008.0 |
| 20260508111954 | 38 | 93 | 0.0 | 0.0 | 0.00 | 0.00 | 0.00 | 99 | 1008.2 |
| 20260508111450 | 38 | 96 | 0.0 | 0.0 | 0.00 | 0.00 | 0.00 | 99 | 1008.2 |
| 20260508110947 | 38 | 102 | 0.0 | 0.0 | 0.00 | 0.00 | 0.00 | 99 | 1008.2 |
| 20260508110445 | 38 | 105 | 0.0 | 0.0 | 0.00 | 0.00 | 0.00 | 99 | 1008.1 |
| 20260508105945 | 37 | 100 | 0.0 | 0.0 | 0.00 | 0.00 | 0.00 | 99 | 1008.0 |
| 20260508105441 | 37 | 112 | 0.0 | 0.0 | 0.00 | 0.00 | 0.00 | 99 | 1007.9 |
| 20260508104939 | 37 | 97 | 0.0 | 0.0 | 0.00 | 0.00 | 0.00 | 99 | 1008.0 |
| 20260508104436 | 37 | 93 | 0.0 | 0.0 | 0.00 | 0.00 | 0.00 | 99 | 1007.9 |
| 20260508103932 | 37 | 97 | 0.0 | 0.0 | 0.00 | 0.00 | 0.00 | 99 | 1007.9 |
| 20260508103430 | 38 | 98 | 0.0 | 0.0 | 0.00 | 0.00 | 0.00 | 99 | 1007.6 |
| 20260508102927 | 38 | 101 | 0.0 | 0.0 | 0.00 | 0.00 | 0.00 | 99 | 1007.9 |
| 20260508102425 | 38 | 96 | 0.0 | 0.0 | 0.00 | 0.00 | 0.00 | 99 | 1007.8 |
| 20260508101922 | 38 | 96 | 0.0 | 0.0 | 0.00 | 0.00 | 0.00 | 99 | 1008.0 |
| 20260508101420 | 37 | 93 | 0.0 | 0.0 | 0.00 | 0.00 | 0.00 | 99 | 1008.0 |
| 20260508100916 | 37 | 93 | 0.0 | 0.0 | 0.00 | 0.00 | 0.00 | 99 | 1008.0 |
| 20260508100416 | 38 | 92 | 0.0 | 0.0 | 0.00 | 0.00 | 0.00 | 99 | 1008.2 |
| 20260508095911 | 38 | 98 | 0.0 | 0.0 | 0.00 | 0.00 | 0.00 | 99 | 1008.1 |
| 20260508095409 | 38 | 105 | 0.0 | 0.0 | 0.00 | 0.00 | 0.00 | 99 | 1007.7 |
| 20260508094905 | 38 | 95 | 0.0 | 0.0 | 0.00 | 0.00 | 0.00 | 99 | 1007.9 |
| 20260508094402 | 38 | 95 | 0.0 | 0.0 | 0.00 | 0.00 | 0.00 | 99 | 1007.8 |
| 20260508093859 | 38 | 96 | 0.0 | 0.0 | 0.00 | 0.00 | 0.00 | 99 | 1007.8 |
| 20260508093357 | 38 | 99 | 0.0 | 0.0 | 0.00 | 0.00 | 0.00 | 99 | 1007.7 |
| 20260508092854 | 38 | 95 | 0.0 | 0.0 | 0.00 | 0.00 | 0.00 | 99 | 1007.8 |
| 20260508092352 | 38 | 93 | 0.0 | 0.0 | 0.00 | 0.00 | 0.00 | 99 | 1008.0 |
| 20260508091850 | 38 | 106 | 0.0 | 0.0 | 0.00 | 0.00 | 0.00 | 99 | 1007.8 |
| 20260508091346 | 39 | 108 | 0.0 | 0.0 | 0.00 | 0.00 | 0.00 | 99 | 1008.1 |
| 20260508090844 | 39 | 98 | 0.0 | 0.0 | 0.00 | 0.00 | 0.00 | 99 | 1008.1 |
| 20260508090342 | 38 | 93 | 0.0 | 0.0 | 0.00 | 0.00 | 0.00 | 99 | 1008.0 |
| 20260508085837 | 38 | 93 | 0.0 | 0.0 | 0.00 | 0.00 | 0.00 | 99 | 1008.1 |
| 20260508085334 | 38 | 93 | 0.0 | 0.0 | 0.00 | 0.00 | 0.00 | 99 | 1008.2 |
| 20260508084831 | 39 | 98 | 0.0 | 0.0 | 0.00 | 0.00 | 0.00 | 99 | 1008.0 |
| 20260508084328 | 39 | 102 | 0.0 | 0.0 | 0.00 | 0.00 | 0.00 | 99 | 1008.1 |
| 20260508083826 | 39 | 96 | 0.0 | 0.0 | 0.00 | 0.00 | 0.00 | 99 | 1008.0 |
| 20260508083323 | 39 | 95 | 0.0 | 0.0 | 0.00 | 0.00 | 0.00 | 99 | 1008.0 |
| 20260508082822 | 39 | 96 | 0.0 | 0.0 | 0.00 | 0.00 | 0.00 | 99 | 1008.0 |
| 20260508082320 | 39 | 96 | 0.0 | 0.0 | 0.00 | 0.00 | 0.00 | 99 | 1008.0 |
| 20260508081817 | 39 | 104 | 0.0 | 0.0 | 0.00 | 0.00 | 0.00 | 99 | 1008.0 |
| 20260508081314 | 39 | 101 | 0.0 | 0.0 | 0.00 | 0.00 | 0.00 | 99 | 1008.1 |
| 20260508080811 | 39 | 103 | 0.0 | 0.0 | 0.00 | 0.00 | 0.00 | 99 | 1008.1 |
| 20260508080309 | 39 | 96 | 0.0 | 0.0 | 0.00 | 0.00 | 0.00 | 99 | 1008.0 |
| 20260508075805 | 40 | 97 | 0.0 | 0.0 | 0.00 | 0.00 | 0.00 | 99 | 1008.0 |
| 20260508075307 | 40 | 99 | 0.0 | 0.0 | 0.00 | 0.00 | 0.00 | 99 | 1007.9 |
| 20260508074801 | 40 | 97 | 0.0 | 0.0 | 0.00 | 0.00 | 0.00 | 99 | 1008.1 |
| 20260508074257 | 40 | 96 | 0.0 | 0.0 | 0.00 | 0.00 | 0.00 | 99 | 1008.1 |
| 20260508073754 | 40 | 96 | 0.0 | 0.0 | 0.00 | 0.00 | 0.00 | 99 | 1008.3 |
| 20260508073253 | 40 | 96 | 0.0 | 0.0 | 0.00 | 0.00 | 0.00 | 99 | 1008.0 |
| 20260508072748 | 40 | 96 | 0.0 | 0.0 | 0.00 | 0.00 | 0.00 | 99 | 1008.2 |
| 20260508072245 | 40 | 99 | 0.0 | 0.0 | 0.00 | 0.00 | 0.00 | 99 | 1008.2 |
| 20260508071742 | 40 | 98 | 0.0 | 0.0 | 0.00 | 0.00 | 0.00 | 99 | 1008.1 |
| 20260508071241 | 40 | 103 | 0.0 | 0.0 | 0.00 | 0.00 | 0.00 | 99 | 1008.0 |
| 20260508070737 | 40 | 98 | 0.0 | 0.0 | 0.00 | 0.00 | 0.00 | 99 | 1008.2 |
| 20260508070236 | 40 | 96 | 0.0 | 0.0 | 0.00 | 0.00 | 0.00 | 99 | 1008.4 |
| 20260508065733 | 40 | 97 | 0.0 | 0.0 | 0.00 | 0.00 | 0.00 | 99 | 1008.2 |
| 20260508065231 | 40 | 97 | 0.0 | 0.0 | 0.00 | 0.00 | 0.00 | 99 | 1008.2 |
| 20260508064728 | 40 | 95 | 0.0 | 0.0 | 0.00 | 0.00 | 0.00 | 99 | 1008.3 |
| 20260508064227 | 41 | 96 | 0.0 | 0.0 | 0.00 | 0.00 | 0.00 | 99 | 1008.3 |
| 20260508063723 | 41 | 97 | 0.0 | 0.0 | 0.00 | 0.00 | 0.00 | 99 | 1008.2 |
| 20260508063221 | 41 | 96 | 0.0 | 0.0 | 0.00 | 0.00 | 0.00 | 99 | 1008.2 |
| 20260508062718 | 41 | 96 | 0.0 | 0.0 | 0.00 | 0.00 | 0.00 | 99 | 1008.4 |
| 20260508062216 | 41 | 96 | 0.0 | 0.0 | 0.00 | 0.00 | 0.00 | 99 | 1008.3 |
| 20260508061713 | 41 | 104 | 0.0 | 0.0 | 0.00 | 0.00 | 0.00 | 99 | 1008.3 |
| 20260508061210 | 41 | 97 | 0.0 | 0.0 | 0.00 | 0.00 | 0.00 | 99 | 1008.3 |
| 20260508060706 | 41 | 97 | 0.0 | 0.0 | 0.00 | 0.00 | 0.00 | 99 | 1008.4 |
| 20260508060204 | 41 | 97 | 0.0 | 0.0 | 0.00 | 0.00 | 0.00 | 99 | 1008.4 |
| 20260508055659 | 41 | 95 | 0.0 | 0.0 | 0.00 | 0.00 | 0.00 | 99 | 1008.5 |
| 20260508055156 | 41 | 99 | 0.0 | 0.0 | 0.00 | 0.00 | 0.00 | 99 | 1008.4 |
| 20260508054653 | 41 | 96 | 0.0 | 0.0 | 0.00 | 0.00 | 0.00 | 99 | 1008.4 |